{"data":{"norad_id":48958,"intl_designator":"2021-059CH","name":"SHERPA-FX2 & TAGSAT-2","alt_names":[],"object_type":"PAYLOAD","status":"ACTIVE","operator":null,"country":"US","launch_date":"2021-06-30","launch_site_code":"AFETR","launch_vehicle":null,"mission":null,"orbit_class":"UNKNOWN","rcs_meters":null,"size_class":null,"mass_kg":null,"dimensions":null,"purposes":[],"wikipedia_slug":null,"has_3d_model":false,"image_url":null,"decayed_at":null,"tle_current":{"epoch":"2026-09-20T13:23:16.900800Z","epoch_age_seconds":92835,"freshness":"FRESH","line1":"1 48958U 21059CH  26263.55783450  .00018642  00000+0  23354-3 0  9997","line2":"2 48958  97.6785 105.0332 0005634 359.1123   1.0122 15.59816122292272","mean_motion":15.59816122,"eccentricity":0.0005634,"inclination_deg":97.6785,"raan_deg":105.0332,"arg_perigee_deg":359.1123,"mean_anomaly_deg":1.0122,"bstar":0.00023354,"rev_number":29227,"period_min":92.318573945346,"perigee_km":384.37664345195,"apogee_km":392.0009393537,"semimajor_km":6766.3257914028,"source":"CELESTRAK","updated_at":"2026-09-21T09:00:07.905727Z"}}}